Location: Unspecified
(0.0000°N, 0.0000°E)
Time: 17:44:34
(UTC+00:00)

SRMSAT - Pass Details

Date: 16 July 2019
Orbit: 848 x 865 km, 20.0° (Epoch: 07 December)

Event Time Altitude Azimuth Distance (km) Brightness Sun altitude
Rises 18:39:04 0° 246° (WSW) 3,432 ? -7.7°
Reaches altitude 10° 18:41:39 10° 244° (WSW) 2,494 ? -8.3°
Maximum altitude 18:47:40 76° 159° (SSE) 885 ? -9.7°
Drops below altitude 10° 18:53:39 10° 73° (ENE) 2,485 ? -11.1°
Enters shadow 18:54:31 - 73° (ENE) 2,796 ? -11.3°
